Vertical_Velocity
2 0 -3 5 3 -3 -4 2 2 3 12 -3 12 11 2 7 7 22 5 3 -7 4
-2 -9 -0 6 5 4 5 1 -6 13 13 8 9 17 12 2 6 4 5 -11 14 15
5 19 13 13 10 22 15 11 0 -0 -2 -14 1 -4 1 5 -4 -2 9 -13 -1 -0
1 6 10 3 7 6 1 3 1 -1 -5 -3 -3 -4 -9 -5 -0 2 -5 -0 7 -7
5 5 4 -1 -2 -1 -4 4 3 3 -4 14 8 3 8 8 23 21 8 9 16 3
2 -3 -4 -2 -1 -2 -5 -2 -8 -5 4 3 -2 2 -2 2 1 -1 -0 2 4 3
-4 -1 -1 1 1 2 1 -1 -0 1 3 4 3 1 1 0 -0 -1 1 1 1 -1
3 1 -1 -1 -0 -1 -1 -1 -0 0 1 2 1 0 -2 -0 1 -0 -2 -1 -2 -2
2 2 3 0 1 2 2 2 2 -2 -2 -2 1 1 2 -0 -2 -1 -0 -1 4 4
-2 -2 -4 -4 -3 1 -1 -5 -1 -0 -3 -3 -2 -1 -1 2 -1 -3 -1 -0 -4 -3
3 4 3 3 1 2 -1 -1 -2 -1 -0 -1 1 1 -0 1 1 -0 -2 -2 -0 -2
-3 -3 -6 -7 -5 -6 -5 -6 -7 -6 -4 -3 -5 -0 -1 -0 0 -0 -0 -1 2 2
-1 -0 -0 -1 -4 -5 -5 -3 -1 -4 -4 -7 -8 -7 -4 -1 -1 -3 -4 -3 -3 -3
-3 -2 -3 -1 1 2 -2 -3 -2 0 -1 0 4 -3 -3 -6 -5 1 -3 -2 -6 -5
Height
1438 1439 1443 1445 1448 1452 1454 1453 1456 1458 1460 1467 1470 1475 1480 1484 1486 1489 1491 1492 1496 1497
1434 1436 1437 1440 1444 1447 1449 1453 1456 1457 1460 1464 1469 1473 1476 1479 1481 1483 1484 1486 1488 1489
1433 1431 1432 1437 1441 1444 1445 1448 1453 1456 1460 1463 1465 1468 1471 1472 1475 1476 1478 1478 1481 1482
1429 1431 1433 1437 1440 1443 1445 1448 1451 1455 1457 1459 1463 1464 1466 1466 1467 1468 1469 1471 1470 1471
1433 1434 1435 1438 1441 1444 1447 1449 1450 1452 1454 1452 1455 1458 1459 1459 1459 1458 1461 1462 1461 1462
1439 1440 1442 1444 1446 1447 1449 1450 1452 1453 1454 1454 1455 1455 1455 1454 1454 1454 1455 1455 1455 1455
1446 1447 1449 1450 1450 1450 1451 1451 1453 1453 1453 1453 1452 1452 1451 1450 1449 1449 1449 1448 1447 1448
1449 1450 1451 1451 1451 1451 1451 1451 1451 1452 1452 1451 1449 1448 1446 1445 1445 1443 1443 1443 1443 1442
1451 1452 1451 1450 1450 1450 1450 1450 1449 1449 1447 1447 1445 1443 1442 1439 1438 1438 1437 1435 1435 1433
1451 1450 1450 1449 1449 1448 1446 1447 1446 1444 1442 1442 1441 1439 1437 1434 1432 1430 1429 1427 1425 1424
1450 1448 1447 1446 1446 1444 1443 1442 1440 1439 1438 1437 1436 1433 1430 1428 1424 1422 1420 1419 1418 1415
1450 1448 1447 1447 1445 1443 1441 1439 1438 1436 1434 1431 1430 1427 1424 1421 1417 1413 1411 1410 1408 1406
1449 1446 1444 1442 1440 1438 1435 1433 1431 1429 1427 1425 1423 1421 1418 1414 1409 1405 1403 1402 1400 1399
1445 1442 1439 1437 1435 1432 1430 1428 1426 1423 1421 1419 1415 1412 1410 1408 1405 1402 1398 1394 1392 1391